Location: Hannover
(52.3723°N, 9.7339°E)
Time: 23:30:56
(UTC+01:00)

M-CUBED/EXP-1 PRIME - Visible Passes

Search period start: 23 January 2020 00:00
Search period end: 02 February 2020 00:00
Orbit: 429 x 668 km, 101.7° (Epoch: 23 January)

Date Brightness Start Highest point End Pass type
(mag) Time Alt. Az. Time Alt. Az. Time Alt. Az.
23 Jan ? 06:58:27 10° NE 07:01:30 31° ESE 07:04:27 10° SSE visible
23 Jan ? 17:47:34 10° SSE 17:51:40 65° WSW 17:55:29 10° NNW visible
24 Jan ? 06:53:45 10° NE 06:56:38 26° ESE 06:59:26 10° SSE visible
24 Jan ? 17:42:46 10° SSE 17:46:52 76° WSW 17:50:40 10° NNW visible
25 Jan ? 06:49:04 10° NE 06:51:45 22° E 06:54:23 10° SSE visible
25 Jan ? 17:37:59 10° SSE 17:42:03 88° WSW 17:45:50 10° NNW visible
25 Jan ? 19:15:34 10° WSW 19:16:47 11° W 19:17:59 10° WNW visible
26 Jan ? 06:44:26 10° NE 06:46:52 19° E 06:49:16 10° SSE visible
26 Jan ? 17:33:14 10° SSE 17:37:14 79° ENE 17:40:59 10° NNW visible
26 Jan ? 19:10:04 10° SW 19:11:55 13° W 19:13:42 10° WNW visible
27 Jan ? 06:39:51 10° ENE 06:41:59 16° E 06:44:05 10° SE visible
27 Jan ? 19:04:46 10° SW 19:07:02 15° W 19:09:14 10° WNW visible
28 Jan ? 06:35:21 10° ENE 06:37:05 14° E 06:38:48 10° SE visible
28 Jan ? 18:59:34 10° SW 19:02:10 17° W 19:04:40 10° WNW visible
29 Jan ? 06:31:01 10° ENE 06:32:11 11° E 06:33:20 10° ESE visible
29 Jan ? 18:54:27 10° SSW 18:57:18 19° W 19:00:02 10° NW visible
30 Jan ? 18:49:23 10° SSW 18:52:26 22° WSW 18:55:21 10° NW visible
31 Jan ? 18:44:21 10° SSW 18:47:34 25° WSW 18:50:39 10° NW visible
01 Feb ? 18:39:23 10° SSW 18:42:43 29° WSW 18:45:54 10° NW visible
